Regional Weather Roundup
Issued by NWS San Angelo, TX

Home | Current Version | Previous Version | Text Only | Print | Product List | Glossary Off
Versions: 1 2 3 4 5 6 7 8 9 10 11 12 13 14 15 16 17 18 19 20 21 22 23 24 25 26 27 28 29 30 31 32 33 34 35 36 37 38 39 40 41 42 43 44 45 46 47 48 49 50

009
ASUS44 KSJT 041811
RWRSJT
WEST CENTRAL TEXAS REGIONAL WEATHER ROUNDUP
NATIONAL WEATHER SERVICE SAN ANGELO TX
100 PM CDT WED MAY 04 2016

NOTE: "FAIR" INDICATES FEW OR NO CLOUDS BELOW 12,000 FEET WITH NO
SIGNIFICANT WEATHER AND/OR OBSTRUCTIONS TO VISIBILITY.

TXZ049-054-064>066-071>073-076>078-098-099-113-114-127-128-139-140-
154-155-168>170-041900
...LOCATIONS ACROSS WEST CENTRAL TEXAS...

CITY           SKY/WX    TMP DP  RH WIND       PRES   REMARKS
SAN ANGELO     SUNNY     77  46  33 NW12      30.16F
ABILENE        SUNNY     74  46  36 N5        30.15F
DYESS AFB      SUNNY     74  46  36 N15G22    30.13F
JUNCTION       SUNNY     79  45  29 NW10G21   30.13F
SWEETWATER     SUNNY     74  36  25 N13       30.19F
BROWNWOOD      SUNNY     75  48  38 NW12G17   30.12F
COLEMAN        CLEAR     75  44  33 N13       30.14
SONORA         MOSUNNY   77  46  33 NW8G15    30.20F
OZONA          FAIR      79  39  24 NW9       30.20F
BRADY          NOT AVBL
$$

TEXAS PANHANDLE/OKLAHOMA PANHANDLE

CITY           SKY/WX    TMP DP  RH WIND       PRES   REMARKS
AMARILLO       SUNNY     74  34  23 NE8       30.21F
BORGER         SUNNY     75  35  23 VRB5      30.18F
CANADIAN       SUNNY     76  38  25 N14       30.13F
DALHART        SUNNY     75  36  24 N12       30.23F
DUMAS          CLEAR     73  34  24 N12       30.22S
GUYMON         NOT AVBL
HEREFORD       CLEAR     75  37  25 N12G24    30.23S
PAMPA          CLEAR     74  36  24 N9G17     30.19F
PERRYTON       SUNNY     75  40  28 N9        30.17S
$$

SOUTHERN PANHANDLE/SOUTH PLAINS/ROLLING PLAINS

CITY           SKY/WX    TMP DP  RH WIND       PRES   REMARKS
LUBBOCK        SUNNY     77  32  19 VRB6G21   30.19F
SNYDER           N/A     74  39  27 NW9G22    30.18F
CHILDRESS      SUNNY     79  35  20 NW8       30.12F
SEMINOLE       CLEAR     76  29  18 NW3       30.22F
$$

PERMIAN BASIN

CITY           SKY/WX    TMP DP  RH WIND       PRES   REMARKS
MIDLAND        SUNNY     79  32  18 N10G16    30.20F
ODESSA         SUNNY     80  30  16 MISG      30.21F
WINK           SUNNY     80  30  16 E7        30.19F
$$

FAR WEST/SOUTHWEST MOUNTAINS/TRANS PECOS

CITY           SKY/WX    TMP DP  RH WIND       PRES   REMARKS
ALPINE         CLEAR     74  25  16 NE12G17   30.32F
DRYDEN           N/A     83  39  21 NE9       30.16F
EL PASO        SUNNY     79  25  13 SE10      30.22F
FORT STOCKTON  SUNNY     77  34  21 VRB3      30.22F
GUADALUPE PASS SUNNY     70  28  21 E13G21    30.32S
MARFA          SUNNY     73  31  21 NE13      30.29F
PECOS          CLEAR     77  35  21 E5        30.21F
$$

DALLAS/FORT WORTH METROPLEX

CITY           SKY/WX    TMP DP  RH WIND       PRES   REMARKS
DFW AIRPORT    SUNNY     78  49  35 NW20      30.04F
FTW MEACHAM    SUNNY     78  50  37 W15       30.05F
DAL-EXECUTIVE  SUNNY     77  49  37 NW22      30.03F
GRAND PRAIRIE  SUNNY     79  45  29 NW7G18    30.06F
ADDISON        NOT AVBL
MESQUITE       CLEAR     77  45  31 NW17G23   30.04F
LANCASTER      CLEAR     78  43  29 NW18      30.05F
$$

NORTH CENTRAL TEXAS

CITY           SKY/WX    TMP DP  RH WIND       PRES   REMARKS
SHRMAN/DENISON CLEAR     72  46  39 NW20G25   30.05F
GAINESVILLE    SUNNY     73  51  45 NW16G22   30.07F
BRIDGEPORT     CLEAR     76  51  42 NW10G17   30.09F
DENTON         SUNNY     76  50  40 NW14      30.05F
WAXAHACHIE     CLEAR     77  50  38 NW15G21   30.06F
GRANBURY       CLEAR     78  49  36 W14       30.08F
$$

WESTERN NORTH TEXAS

CITY           SKY/WX    TMP DP  RH WIND       PRES   REMARKS
WICHITA FALLS  SUNNY     77  49  37 N16       30.08F
VERNON         CLEAR     79  35  20 N12       30.11F
BRECKENRIDGE   CLEAR     76  46  33 N14G22    30.11F HAZE
COMANCHE       SUNNY     75  53  45 NW13      30.12S
$$

CENTRAL AND SOUTH CENTRAL TEXAS

CITY           SKY/WX    TMP DP  RH WIND       PRES   REMARKS
AUSTIN/BERGSTM MOSUNNY   81  54  39 N14       30.07F
WACO           SUNNY     81  50  33 W10       30.06F
HILLSBORO      CLEAR     76  53  43 NW15      30.06F
TEMPLE         SUNNY     80  53  39 NW10G17   30.07F
KILLEEN-GRAY   MOSUNNY   77  54  44 W12G20    30.07F
FORT HOOD      MOSUNNY   79  51  37 W12       30.05F
GEORGETOWN     MOSUNNY   81  52  36 W12G20    30.08F
LAGO VISTA     FAIR      79  51  38 NW10G20   30.11F
SAN MARCOS     MOSUNNY   82  55  39 NW6       30.09F
NEW BRAUNFELS  MOSUNNY   83  55  38 W7        30.07F
RANDOLPH AFB   SUNNY     80  53  39 VRB5      30.08F
SAN ANTONIO    MOSUNNY   81  54  39 W8        30.09F
STINSON        SUNNY     83  50  31 W10G18    30.07F
PLEASANTON     NOT AVBL
LA GRANGE        N/A     79  56  45 NW7       30.06F
GIDDINGS       CLEAR     78  51  39 N7        30.11F
$$

EAST TEXAS

CITY           SKY/WX    TMP DP  RH WIND       PRES   REMARKS
PARIS          SUNNY     75  52  43 NW14      30.00F
CLARKSVILLE    NOT AVBL
TYLER          SUNNY     77  53  43 NW12G22   30.02F
LONGVIEW       SUNNY     77  52  41 NW12      29.99F
PALESTINE      CLEAR     76  55  46 W13       30.05F
NACOGDOCHES    SUNNY     75  52  43 W10G17    30.02F
$$

TEXAS HILL COUNTRY AND EDWARDS PLATEAU

CITY           SKY/WX    TMP DP  RH WIND       PRES   REMARKS
LLANO          PTCLDY    79  54  41 NW10      30.14F
HORSESHOE BAY  FAIR      78  55  44 N9G16     30.11F
KERRVILLE      SUNNY     79  51  36 NW10G18   30.13F
FREDERICKSBRG  SUNNY     77  46  32 NW10G17   30.12F
ROCKSPRINGS    PTCLDY    79  43  27 N8        30.18F
HONDO          SUNNY     81  53  37 W8        30.12F
UVALDE         CLEAR     80  52  38 W8        30.12F
DEL RIO        SUNNY     80  54  40 VRB3      30.12F
$$

SOUTHEAST TEXAS

CITY           SKY/WX    TMP DP  RH WIND       PRES   REMARKS
COLLEGE STN    SUNNY     77  54  44 NW10      30.06F
CALDWELL       CLEAR     77  48  36 NW8       30.09F
CROCKETT       PTCLDY    75  55  50 W9        30.07F
BRENHAM        SUNNY     79  53  41 W7        30.07F
HUNTSVILLE     SUNNY     77  51  40 NW12      30.05F
CONROE         SUNNY     76  52  43 W9        30.05F
HOUSTON BUSH   MOSUNNY   78  52  40 NW8G16    30.04F
HOUSTON HOBBY  SUNNY     79  50  36 N7        30.04F
PERLAND        SUNNY     80  49  33 NW7       30.06F
WHARTON        CLEAR     79  53  40 NW8       30.08F
$$

THE UPPER TEXAS COAST

CITY           SKY/WX    TMP DP  RH WIND       PRES   REMARKS
ORANGE         CLEAR     76  43  31 N6        30.04F
PORT ARTHUR    SUNNY     79  49  34 NW9G20    30.02F
GALVESTON      SUNNY     75  54  47 NE9       30.05F
ANGLETON       SUNNY     79  53  40 VRB6      30.06F
BAY CITY       CLEAR     78  54  43 N8        30.06F
$$

TEXAS COASTAL BEND, RIO GRANDE PLAINS DEEP SOUTH TEXAS

CITY           SKY/WX    TMP DP  RH WIND       PRES   REMARKS
VICTORIA       SUNNY     79  50  36 VRB6      30.08F
BEEVILLE       FAIR      83  49  31 NE3       30.08F
ROCKPORT       SUNNY     83  46  27 VRB5      30.07F
PORT ARANSAS   CLEAR     77  51  40 NE8       30.08F
PORT LAVACA    CLEAR     77  55  47 N7        30.08F
CORPUS CHRISTI MOSUNNY   84  45  25 NE8       30.08F
KINGSVILLE NAS MOSUNNY   84  50  30 NE12      30.07F
COTULLA        SUNNY     87  43  21 N5        30.09F
LAREDO         SUNNY     84  52  33 W8        30.09F
BROWNSVILLE    SUNNY     82  50  32 N12G18    30.07F
PORT ISABEL    SUNNY     80  60  50 N14       30.07F
HEBBRONVILLE   CLEAR     84  40  21 N7        30.09F
MCALLEN        SUNNY     86  49  27 N8        30.08F
WESLACO        SUNNY     83  49  30 NE8       30.07F
FALFURRIAS     CLEAR     87  35  15 NE7G17    30.06F
EDINBURG       CLEAR     86  41  20 N3        30.08F
$$




USA.gov is the U.S. government's official web portal to all federal, state and local government web resources and services.